Theta_e
329 329 329 329 334 337 339 339 340 339 339 339 339 340 340 343 341 342 341 338 338 341 335 338 336 344 336 342 340 341 337 336
324 324 329 335 336 337 339 337 337 337 335 338 339 338 337 337 338 336 336 334 333 334 333 332 332 332 332 332 334 336 336 336
324 328 331 333 338 339 340 338 336 335 333 333 335 337 336 335 335 335 335 333 331 330 330 328 329 328 330 330 330 332 334 334
323 327 329 333 339 342 343 341 338 336 334 332 334 336 335 333 334 336 335 333 330 329 328 327 325 328 330 331 330 330 332 332
322 326 328 333 338 344 344 342 342 340 338 334 334 335 335 333 332 333 335 333 329 328 326 326 326 327 327 329 327 326 327 328
318 324 325 328 327 329 342 345 339 337 337 336 336 336 336 335 334 333 334 333 330 327 327 325 326 326 328 329 326 325 326 326
312 317 323 324 325 326 325 332 332 330 332 336 337 337 337 337 336 335 334 334 332 330 328 327 325 327 327 328 326 326 324 325
309 313 316 319 322 324 323 326 333 333 334 334 337 338 339 339 338 337 336 336 335 331 331 328 326 327 327 327 327 326 324 326
307 311 315 317 319 319 320 320 328 335 336 335 337 337 340 340 340 339 338 337 336 332 332 330 328 327 328 328 327 324 323 325
305 307 311 314 316 318 320 321 323 334 340 340 340 339 340 342 342 339 340 339 338 336 333 332 330 328 326 328 327 323 324 326
301 304 307 311 312 313 317 320 321 324 339 340 328 329 328 333 332 334 338 340 341 339 336 334 331 331 328 328 329 326 322 324
299 301 302 305 308 310 313 319 323 325 334 337 336 335 334 327 334 336 332 336 338 340 338 335 333 333 331 329 330 328 326 326
298 299 301 304 306 308 313 317 321 326 332 337 336 330 327 323 321 323 326 327 333 339 339 336 334 335 332 330 328 328 331 329
302 303 304 305 305 305 309 316 320 323 326 331 331 332 322 321 321 322 323 327 332 336 337 336 335 335 332 332 333 332 331 331
300 301 303 306 307 305 305 312 318 321 323 326 325 323 322 323 322 323 324 327 330 333 335 334 335 335 334 333 334 333 331 330
299 301 303 305 307 313 312 305 314 319 322 323 324 323 322 322 322 325 327 330 330 335 337 336 335 336 335 334 334 333 332 331
298 301 303 304 306 307 310 314 307 316 321 322 319 322 322 322 324 328 330 330 332 334 335 335 335 335 334 332 332 332 331 328
299 301 303 304 305 305 310 314 307 310 316 321 322 323 324 325 327 330 331 331 333 334 334 334 334 334 334 334 332 331 327 326
300 301 304 303 303 305 312 317 309 307 313 317 321 325 326 329 331 331 332 333 333 334 334 333 334 333 335 333 331 329 328 325
300 301 303 302 302 310 313 320 312 313 320 324 327 329 331 331 331 331 332 331 333 335 336 336 335 335 332 330 327 328 325 322
Wind_Speed
9 10 22 24 18 9 10 10 7 7 5 3 2 2 2 5 7 7 5 5 5 4 3 4 4 11 4 7 6 4 6 4
7 6 3 8 14 12 11 9 9 9 5 4 4 3 2 3 5 6 5 4 5 5 4 5 4 3 5 5 4 5 5 6
5 5 7 3 9 12 14 12 11 8 7 4 4 6 5 4 4 5 5 5 6 5 5 4 4 4 5 5 5 5 6 6
3 5 8 9 8 11 13 14 13 14 12 11 9 8 7 6 5 7 9 6 5 6 5 6 5 6 6 6 6 6 6 5
10 10 8 13 12 16 19 19 16 16 16 13 11 10 8 8 9 10 11 10 8 8 6 7 8 7 7 5 5 4 4 4
9 9 9 8 5 8 11 14 18 18 15 11 8 11 8 8 9 8 12 12 11 9 8 8 7 6 7 6 5 4 5 4
10 9 12 10 10 8 8 7 10 13 12 7 11 6 6 8 8 8 11 12 12 10 9 7 7 7 7 7 4 6 4 4
8 11 10 9 11 12 9 7 9 6 6 2 2 4 6 8 9 9 10 9 11 10 7 6 8 7 6 6 7 4 3 5
8 8 13 11 7 7 10 8 10 5 4 2 5 7 9 7 9 10 9 9 11 10 7 7 8 9 9 9 5 6 4 4
9 9 7 9 13 9 11 13 14 9 9 7 7 7 9 9 7 6 9 10 11 10 10 9 10 7 7 9 8 3 3 5
12 10 9 8 9 11 14 14 14 12 16 9 3 2 1 3 3 4 8 11 9 11 10 9 9 9 8 9 9 9 5 3
13 13 10 9 9 10 13 15 15 14 16 15 20 17 14 5 6 6 6 7 9 9 10 9 9 8 7 9 8 8 5 5
10 14 13 15 12 10 11 12 9 11 13 17 13 10 6 3 3 5 5 5 7 10 10 10 10 8 7 9 7 7 6 4
10 9 11 11 11 8 8 9 11 9 11 15 16 17 9 5 4 5 5 4 5 7 8 9 8 8 8 8 8 9 8 5
9 10 11 12 12 12 8 8 11 9 12 13 14 14 12 13 11 8 6 4 3 6 8 8 8 8 7 6 6 6 7 6
10 10 9 9 12 13 13 9 11 9 12 14 12 12 8 8 8 6 6 5 5 8 8 7 7 7 6 5 4 4 6 5
11 14 8 9 10 12 13 11 12 12 13 11 9 8 8 9 8 7 5 5 5 7 7 7 7 6 7 7 5 6 6 5
12 12 10 8 9 12 15 9 11 13 12 11 10 10 8 7 7 7 7 6 7 9 9 7 7 7 7 7 5 6 7 4
15 14 13 10 10 13 14 11 9 9 10 9 8 8 8 8 8 7 8 8 9 9 8 7 7 7 6 7 6 6 7 6
16 15 13 13 11 13 11 11 8 10 10 9 9 8 10 9 8 8 9 8 8 10 9 8 7 7 7 7 7 6 7 7
Wind_Direction
291 181 173 187 177 177 186 160 160 155 179 165 192 249 198 194 188 185 173 158 177 189 178 194 198 211 200 209 212 206 199 191
241 121 330 172 175 181 176 176 166 167 167 169 173 201 232 222 209 179 171 168 185 188 186 194 188 201 189 199 198 199 206 208
243 190 138 183 187 176 176 169 165 173 197 169 197 202 189 238 200 194 190 188 197 177 191 187 192 184 189 203 200 201 211 219
201 235 172 173 187 186 175 180 193 174 191 198 202 206 199 184 200 207 199 193 194 192 192 195 201 198 197 202 202 202 214 213
193 212 198 192 199 188 181 187 189 201 186 201 190 208 179 203 209 206 201 193 191 193 196 198 207 202 193 191 195 197 202 211
251 192 230 214 199 213 196 187 193 196 180 175 208 220 177 203 210 201 195 198 193 190 197 208 197 191 195 194 184 198 213 201
265 245 211 208 222 208 219 244 231 211 207 195 186 194 206 211 213 204 196 195 196 199 202 203 176 191 195 191 190 196 185 206
264 254 258 222 207 212 203 204 210 243 300 233 212 185 205 217 218 213 190 193 198 200 204 189 183 190 190 185 198 186 174 206
275 244 234 253 252 207 209 196 231 195 182 215 250 217 222 218 212 205 178 192 196 194 198 198 188 197 199 189 183 178 209 172
295 288 242 212 227 232 223 211 220 204 212 221 222 241 241 226 200 183 190 196 198 192 195 202 196 197 182 182 179 161 190 167
296 297 286 272 215 216 225 225 219 214 210 201 123 95 126 158 203 202 207 207 198 196 199 197 192 193 195 187 184 177 180 188
312 314 305 291 270 260 212 210 218 217 209 207 209 216 214 208 203 215 213 188 206 200 203 196 193 196 193 189 186 183 145 160
317 318 317 306 301 276 262 259 209 201 192 203 205 209 194 168 151 181 205 191 197 205 203 194 194 190 189 173 162 164 188 149
303 296 299 303 307 284 277 261 251 206 192 205 201 204 192 174 185 198 211 203 197 199 187 186 187 182 175 174 172 174 185 172
290 300 310 310 314 310 281 252 249 227 203 202 200 196 193 199 207 204 179 186 189 189 171 173 182 178 167 149 157 159 167 177
285 282 281 288 300 304 308 272 246 225 212 207 206 207 203 205 198 187 190 181 193 174 175 172 160 155 142 149 139 140 156 163
283 289 271 273 291 292 292 296 264 239 219 211 195 191 180 194 193 178 179 162 166 165 144 149 157 146 150 154 147 151 163 162
289 288 272 267 281 280 284 261 258 237 218 213 197 191 190 177 163 172 167 154 165 144 144 150 146 147 145 145 133 146 146 159
294 288 285 278 278 277 275 283 249 221 211 203 187 179 169 168 168 156 161 162 151 145 150 146 145 149 148 132 150 147 148 154
285 286 281 282 277 279 270 283 225 215 196 177 182 163 158 156 147 156 153 141 142 147 151 147 147 147 140 146 146 153 154 162